When you browse on this site, cookies collect data to enhance your experience and personalize the content and advertising you see.
Visit our Privacy Policy to learn more. By continuing to use the site, you agree to this use of cookies and data.

Hourly Weather Świebodzin

Today, 9 July, Thursday

Time Temperature Precipitation Wind Pressure Humidity
00:00 +12°C° 0 mm 1 mps 755 mmHg 93%
01:00 +12°C° 0 mm 1 mps 755 mmHg 95%
02:00 +12°C° 0 mm 2 mps 755 mmHg 95%
03:00 +12°C° 0 mm 2 mps 755 mmHg 96%
04:00 +12°C° 0 mm 2 mps 755 mmHg 96%
05:00 +13°C° 0 mm 2 mps 755 mmHg 93%
06:00 +14°C° 0 mm 2 mps 755 mmHg 91%
07:00 +15°C° 0 mm 2 mps 755 mmHg 89%
08:00 +17°C° 0 mm 2 mps 755 mmHg 82%
09:00 +18°C° 0 mm 2 mps 755 mmHg 75%
10:00 +19°C° 0 mm 2 mps 755 mmHg 68%
11:00 +20°C° 0.1 mm 2 mps 754 mmHg 66%
12:00 +21°C° 0.1 mm 3 mps 754 mmHg 63%
13:00 +22°C° 0.1 mm 3 mps 753 mmHg 61%
14:00 +20°C° 0.9 mm 3 mps 753 mmHg 71%
15:00 +19°C° 0.9 mm 3 mps 752 mmHg 81%
16:00 +18°C° 0.9 mm 3 mps 752 mmHg 91%
17:00 +18°C° 0.4 mm 3 mps 751 mmHg 90%
18:00 +19°C° 0.4 mm 3 mps 751 mmHg 90%
19:00 +19°C° 0.4 mm 4 mps 750 mmHg 89%
20:00 +19°C° 0.1 mm 3 mps 751 mmHg 91%
21:00 +18°C° 0.1 mm 3 mps 751 mmHg 92%
22:00 +18°C° 0.1 mm 3 mps 751 mmHg 94%
23:00 +18°C° 0 mm 3 mps 751 mmHg 94%

Tomorrow, 10 July, Friday

Time Temperature Precipitation Wind Pressure Humidity
00:00 +17°C° 0 mm 3 mps 751 mmHg 94%
01:00 +17°C° 0 mm 3 mps 751 mmHg 95%
02:00 +17°C° 0 mm 3 mps 750 mmHg 94%
03:00 +17°C° 0 mm 3 mps 750 mmHg 94%
04:00 +16°C° 0 mm 2 mps 750 mmHg 94%
05:00 +17°C° 0 mm 2 mps 750 mmHg 92%
06:00 +18°C° 0 mm 3 mps 750 mmHg 90%
07:00 +19°C° 0 mm 3 mps 750 mmHg 89%
08:00 +20°C° 0.3 mm 3 mps 750 mmHg 83%
09:00 +21°C° 0.3 mm 3 mps 750 mmHg 78%
10:00 +23°C° 0.3 mm 4 mps 750 mmHg 73%
11:00 +23°C° 0.4 mm 4 mps 750 mmHg 71%
12:00 +25°C° 0.4 mm 4 mps 749 mmHg 69%
13:00 +25°C° 0.4 mm 4 mps 749 mmHg 67%
14:00 +25°C° 0.6 mm 5 mps 749 mmHg 67%
15:00 +26°C° 0.6 mm 5 mps 749 mmHg 66%
16:00 +26°C° 0.6 mm 5 mps 749 mmHg 65%
17:00 +25°C° 0.3 mm 5 mps 749 mmHg 70%
18:00 +22°C° 0.3 mm 4 mps 749 mmHg 74%
19:00 +21°C° 0.3 mm 4 mps 750 mmHg 79%
20:00 +20°C° 0 mm 4 mps 750 mmHg 82%
21:00 +18°C° 0 mm 4 mps 751 mmHg 85%
22:00 +15°C° 0 mm 4 mps 752 mmHg 89%
23:00 +15°C° 0 mm 4 mps 753 mmHg 88%

Day after tomorrow, 11 July, Saturday

Time Temperature Precipitation Wind Pressure Humidity
00:00 +14°C° 0 mm 4 mps 753 mmHg 88%
01:00 +13°C° 0 mm 3 mps 754 mmHg 87%
02:00 +13°C° 0 mm 3 mps 754 mmHg 88%
03:00 +12°C° 0 mm 3 mps 755 mmHg 88%
04:00 +12°C° 0 mm 2 mps 755 mmHg 89%
05:00 +13°C° 0 mm 2 mps 756 mmHg 85%
06:00 +13°C° 0 mm 3 mps 757 mmHg 80%
07:00 +13°C° 0 mm 3 mps 757 mmHg 76%
08:00 +16°C° 0 mm 3 mps 757 mmHg 69%
09:00 +17°C° 0 mm 3 mps 758 mmHg 61%
10:00 +18°C° 0 mm 4 mps 758 mmHg 53%
11:00 +19°C° 0 mm 3 mps 758 mmHg 49%
12:00 +20°C° 0 mm 3 mps 758 mmHg 45%
13:00 +21°C° 0 mm 3 mps 759 mmHg 41%
14:00 +21°C° 0 mm 3 mps 759 mmHg 41%
15:00 +21°C° 0 mm 4 mps 759 mmHg 42%
16:00 +21°C° 0 mm 4 mps 759 mmHg 42%
17:00 +20°C° 0 mm 3 mps 759 mmHg 47%
18:00 +19°C° 0 mm 2 mps 759 mmHg 52%
19:00 +18°C° 0 mm 2 mps 759 mmHg 57%
20:00 +17°C° 0 mm 2 mps 759 mmHg 63%
21:00 +16°C° 0 mm 2 mps 760 mmHg 68%
22:00 +14°C° 0 mm 2 mps 760 mmHg 74%
23:00 +14°C° 0 mm 2 mps 760 mmHg 78%

12 July, Sunday

Time Temperature Precipitation Wind Pressure Humidity
00:00 +13°C° 0 mm 2 mps 760 mmHg 81%
01:00 +12°C° 0 mm 2 mps 760 mmHg 85%
02:00 +12°C° 0 mm 2 mps 760 mmHg 86%
03:00 +10°C° 0 mm 2 mps 760 mmHg 88%
04:00 +10°C° 0 mm 2 mps 761 mmHg 89%
05:00 +12°C° 0 mm 2 mps 761 mmHg 82%
06:00 +13°C° 0 mm 3 mps 761 mmHg 74%
07:00 +14°C° 0 mm 3 mps 761 mmHg 67%
08:00 +15°C° 0 mm 4 mps 761 mmHg 60%
09:00 +17°C° 0 mm 4 mps 761 mmHg 53%
10:00 +19°C° 0 mm 4 mps 762 mmHg 47%
11:00 +19°C° 0 mm 4 mps 761 mmHg 44%
12:00 +20°C° 0 mm 4 mps 761 mmHg 42%
13:00 +21°C° 0 mm 4 mps 761 mmHg 40%
14:00 +21°C° 0 mm 4 mps 761 mmHg 41%
15:00 +21°C° 0 mm 4 mps 761 mmHg 43%
16:00 +20°C° 0 mm 4 mps 761 mmHg 45%
17:00 +20°C° 0 mm 4 mps 761 mmHg 49%
18:00 +19°C° 0 mm 3 mps 761 mmHg 54%
19:00 +18°C° 0 mm 3 mps 761 mmHg 59%
20:00 +17°C° 0 mm 2 mps 761 mmHg 64%
21:00 +16°C° 0 mm 2 mps 761 mmHg 69%
22:00 +14°C° 0 mm 2 mps 761 mmHg 74%
23:00 +14°C° 0 mm 2 mps 761 mmHg 76%

13 July, Monday

Time Temperature Precipitation Wind Pressure Humidity
00:00 +13°C° 0 mm 2 mps 761 mmHg 79%
01:00 +13°C° 0 mm 2 mps 761 mmHg 81%
02:00 +13°C° 0 mm 2 mps 761 mmHg 83%
03:00 +13°C° 0 mm 2 mps 760 mmHg 85%
04:00 +12°C° 0 mm 2 mps 760 mmHg 87%
05:00 +13°C° 0 mm 3 mps 760 mmHg 83%
06:00 +14°C° 0 mm 3 mps 760 mmHg 78%
07:00 +15°C° 0 mm 4 mps 760 mmHg 74%
08:00 +17°C° 0 mm 4 mps 760 mmHg 70%
09:00 +17°C° 0 mm 4 mps 760 mmHg 66%
10:00 +17°C° 0 mm 5 mps 760 mmHg 62%
11:00 +19°C° 0 mm 5 mps 760 mmHg 60%
12:00 +19°C° 0 mm 5 mps 759 mmHg 59%
13:00 +20°C° 0 mm 5 mps 759 mmHg 57%
14:00 +20°C° 0 mm 5 mps 759 mmHg 56%
15:00 +21°C° 0 mm 4 mps 758 mmHg 55%
16:00 +21°C° 0 mm 4 mps 758 mmHg 54%
17:00 +20°C° 0 mm 3 mps 758 mmHg 58%
18:00 +20°C° 0 mm 3 mps 758 mmHg 62%
19:00 +19°C° 0 mm 2 mps 758 mmHg 66%
20:00 +18°C° 0 mm 2 mps 758 mmHg 71%
21:00 +16°C° 0 mm 2 mps 758 mmHg 77%
22:00 +14°C° 0 mm 2 mps 758 mmHg 83%
23:00 +14°C° 0 mm 1 mps 758 mmHg 86%

14 July, Tuesday

Time Temperature Precipitation Wind Pressure Humidity
00:00 +13°C° 0 mm 1 mps 758 mmHg 88%
01:00 +13°C° 0 mm 1 mps 758 mmHg 91%
02:00 +12°C° 0 mm 1 mps 758 mmHg 92%
03:00 +12°C° 0 mm 1 mps 758 mmHg 92%
04:00 +12°C° 0 mm 1 mps 757 mmHg 93%
05:00 +13°C° 0 mm 1 mps 757 mmHg 86%
06:00 +15°C° 0 mm 1 mps 758 mmHg 79%
07:00 +18°C° 0 mm 1 mps 758 mmHg 72%
08:00 +18°C° 0 mm 2 mps 757 mmHg 65%
09:00 +20°C° 0 mm 2 mps 757 mmHg 58%
10:00 +21°C° 0 mm 2 mps 757 mmHg 50%
11:00 +23°C° 0 mm 2 mps 757 mmHg 47%
12:00 +24°C° 0 mm 2 mps 757 mmHg 43%
13:00 +25°C° 0 mm 2 mps 756 mmHg 39%
14:00 +25°C° 0 mm 2 mps 756 mmHg 39%
15:00 +25°C° 0 mm 2 mps 756 mmHg 40%
16:00 +25°C° 0 mm 2 mps 756 mmHg 40%
17:00 +24°C° 0 mm 2 mps 755 mmHg 46%
18:00 +23°C° 0 mm 2 mps 755 mmHg 52%
19:00 +21°C° 0 mm 2 mps 755 mmHg 58%
20:00 +20°C° 0 mm 2 mps 755 mmHg 65%
21:00 +18°C° 0 mm 2 mps 756 mmHg 71%
22:00 +17°C° 0 mm 2 mps 756 mmHg 78%
23:00 +16°C° 0 mm 1 mps 756 mmHg 80%
Show more